Change the Weather History Date:

Thursday, April 3, 2014

  Actual Average Record
Temperature  
Mean Temperature 44 °F 50 °F  
Max Temperature 50 °F 63 °F 91 °F (2011)
Min Temperature 37 °F 37 °F 23 °F (2002)
Degree Days  
Heating Degree Days 21 15  
Month to date heating degree days 68 47  
Since 1 July heating degree days 5349 4883  
Cooling Degree Days 0 0  
Month to date cooling degree days 0 0  
Year to date cooling degree days 0 2  
Moisture  
Dew Point 43 °F    
Average Humidity 93    
Maximum Humidity 100    
Minimum Humidity 85    
Precipitation  
Precipitation 0.01 in 0.05 in 0.58 in (1998)
Month to date precipitation 0.52 0.15  
Year to date precipitation 2.27 4.07  
Sea Level Pressure  
Sea Level Pressure 29.70 in    
Wind  
Wind Speed 8 mph (North)    
Max Wind Speed 16 mph    
Max Gust Speed 25 mph    
Visibility 4 miles    
Events Rain    
T = Trace of Precipitation, MM = Missing Value Source: NWS Daily Summary

Daily Weather History Graph

Daily Weather History Graph

Search for Another Location

Airport or City:

Trip Planner

Search our weather history database for the weather conditions in past years. The results will help you decide how hot, cold, wet, or windy it might be!

Date:

Astronomy

Apr. 03, 2014 Rise Set
Actual Time 7:08 AM CDT 7:52 PM CDT
Civil Twilight 6:41 AM CDT 8:19 PM CDT
Nautical Twilight 6:09 AM CDT 8:51 PM CDT
Astronomical Twilight 5:36 AM CDT 9:24 PM CDT
Moon 9:39 AM CDT (4/3) No Moon Set
Length of Visible Light 13h 38m
Length of Day
12h 44m
Waxing Crescent, 17% of the Moon is Illuminated
Apr 3
Waxing Crescent
Apr 7
First Quarter
Apr 15
Full
Apr 22
Last Quarter
Apr 29
New

Hourly Weather History & Observations

Time (CDT) Temp. Windchill Dew Point Humidity Pressure Visibility Wind Dir Wind Speed Gust Speed Precip Events Conditions
12:52 AM 46.0 °F 40.2 °F 46.0 °F 100% 29.65 in 4.0 mi ENE 12.7 mph - 0.00 in   Overcast
1:07 AM 46.0 °F 41.0 °F 46.0 °F 100% 29.64 in 5.0 mi NE 10.4 mph - N/A   Overcast
1:52 AM 46.9 °F - 46.9 °F 100% 29.62 in 4.0 mi ENE 12.7 mph - N/A   Overcast
2:52 AM 46.9 °F - 46.9 °F 100% 29.64 in 2.5 mi ENE 8.1 mph - N/A   Overcast
3:13 AM 46.9 °F - 46.9 °F 100% 29.63 in 3.0 mi North 5.8 mph - N/A   Overcast
3:36 AM 48.0 °F - 46.9 °F 96% 29.64 in 4.0 mi NE 10.4 mph - N/A   Overcast
3:52 AM 48.0 °F - 48.0 °F 100% 29.62 in 3.0 mi ENE 10.4 mph - N/A   Overcast
4:52 AM 50.0 °F - 48.9 °F 96% 29.64 in 6.0 mi Variable 4.6 mph - N/A   Overcast
5:24 AM 50.0 °F - 48.9 °F 96% 29.61 in 7.0 mi NNE 8.1 mph - N/A   Overcast
5:52 AM 50.0 °F - 48.9 °F 96% 29.63 in 7.0 mi North 4.6 mph - N/A   Overcast
6:52 AM 46.9 °F - 46.0 °F 97% 29.64 in 10.0 mi NNE 9.2 mph - N/A   Overcast
7:27 AM 46.0 °F 41.9 °F 45.0 °F 96% 29.63 in 10.0 mi NNE 8.1 mph - N/A   Overcast
7:50 AM 46.4 °F 41.9 °F 44.6 °F 93% 29.63 in 8.0 mi NNE 9.2 mph - N/A   Overcast
7:52 AM 46.0 °F 41.0 °F 45.0 °F 96% 29.64 in 8.0 mi NNE 10.4 mph - N/A   Overcast
8:52 AM 46.0 °F 43.1 °F 46.0 °F 100% 29.65 in 4.0 mi NE 5.8 mph - N/A   Overcast
9:12 AM 46.0 °F 43.9 °F 45.0 °F 96% 29.65 in 2.0 mi NNW 4.6 mph - N/A   Overcast
9:22 AM 46.0 °F 43.1 °F 45.0 °F 96% 29.64 in 1.5 mi North 5.8 mph - N/A   Overcast
9:52 AM 46.0 °F 43.1 °F 46.0 °F 100% 29.65 in 1.2 mi North 5.8 mph - N/A   Overcast
10:02 AM 46.0 °F 42.5 °F 45.0 °F 96% 29.64 in 1.2 mi North 6.9 mph - N/A   Overcast
10:52 AM 46.0 °F 42.5 °F 46.0 °F 100% 29.65 in 2.0 mi North 6.9 mph - N/A   Overcast
11:40 AM 46.0 °F 41.9 °F 46.0 °F 100% 29.64 in 1.8 mi NNW 8.1 mph - N/A   Overcast
11:52 AM 46.0 °F 42.5 °F 46.0 °F 100% 29.65 in 1.2 mi NNW 6.9 mph - N/A   Overcast
12:05 PM 46.0 °F 41.9 °F 45.0 °F 96% 29.64 in 1.0 mi NW 8.1 mph - N/A   Overcast
12:40 PM 46.0 °F 41.9 °F 45.0 °F 96% 29.66 in 0.8 mi North 8.1 mph - N/A   Overcast
12:52 PM 46.0 °F 41.9 °F 45.0 °F 96% 29.66 in 1.0 mi NNW 8.1 mph - N/A   Overcast
1:23 PM 46.0 °F 42.5 °F 45.0 °F 96% 29.65 in 2.0 mi NNW 6.9 mph - N/A   Overcast
1:45 PM 46.0 °F 41.9 °F 45.0 °F 96% 29.65 in 3.0 mi North 8.1 mph - N/A   Overcast
1:52 PM 46.0 °F 43.9 °F 45.0 °F 96% 29.66 in 2.5 mi North 4.6 mph - N/A   Overcast
2:05 PM 46.0 °F 42.5 °F 45.0 °F 96% 29.65 in 3.0 mi North 6.9 mph - N/A   Overcast
2:52 PM 46.0 °F 41.4 °F 44.1 °F 93% 29.67 in 5.0 mi NW 9.2 mph - N/A   Overcast
3:52 PM 46.0 °F 43.1 °F 44.1 °F 93% 29.68 in 4.0 mi Variable 5.8 mph - N/A   Overcast
4:52 PM 45.0 °F 40.1 °F 42.1 °F 90% 29.68 in 10.0 mi NNW 9.2 mph - N/A   Overcast
5:06 PM 45.0 °F 40.1 °F 42.1 °F 90% 29.66 in 10.0 mi NNW 9.2 mph 19.6 mph N/A   Overcast
5:52 PM 44.1 °F 39.5 °F 41.0 °F 89% 29.71 in 10.0 mi NW 8.1 mph - N/A   Overcast
6:52 PM 42.1 °F 37.7 °F 39.9 °F 92% 29.80 in 4.0 mi NNW 6.9 mph - 0.00 in Rain Light Rain
6:59 PM 41.0 °F 37.1 °F 39.9 °F 96% 29.79 in 2.5 mi NNW 5.8 mph 16.1 mph 0.00 in Rain Light Rain
7:03 PM 41.0 °F 35.2 °F 39.9 °F 96% 29.80 in 3.0 mi NNW 9.2 mph - 0.00 in Rain Light Rain
7:16 PM 41.0 °F 36.4 °F 39.0 °F 93% 29.79 in 2.5 mi Variable 6.9 mph 17.3 mph 0.00 in Rain Light Rain
7:21 PM 41.0 °F 35.2 °F 39.9 °F 96% 29.79 in 1.8 mi NW 9.2 mph - 0.00 in Rain Light Rain
7:25 PM 41.0 °F 35.2 °F 39.0 °F 93% 29.79 in 2.0 mi NNW 9.2 mph - 0.00 in Rain Light Rain
7:31 PM 39.9 °F 35.1 °F 39.0 °F 97% 29.80 in 3.0 mi North 6.9 mph - 0.00 in Rain Light Rain
7:38 PM 39.9 °F 34.5 °F 39.0 °F 97% 29.80 in 5.0 mi North 8.1 mph - 0.00 in Rain Light Rain
7:52 PM 39.9 °F 33.4 °F 39.0 °F 97% 29.83 in 7.0 mi NNW 10.4 mph 18.4 mph 0.00 in Rain Light Rain
8:43 PM 39.0 °F 31.8 °F 37.0 °F 93% 29.82 in 5.0 mi NW 11.5 mph 18.4 mph 0.00 in Rain Light Rain
8:52 PM 37.9 °F 32.1 °F 36.0 °F 93% 29.85 in 7.0 mi NNW 8.1 mph 17.3 mph 0.00 in Rain Light Rain
9:20 PM 37.9 °F 31.5 °F 37.0 °F 97% 29.85 in 5.0 mi NW 9.2 mph - 0.00 in Rain Light Rain
9:29 PM 37.9 °F 31.5 °F 36.0 °F 93% 29.85 in 4.0 mi NNW 9.2 mph 25.3 mph 0.00 in Rain Light Rain
10:52 PM 37.0 °F 29.3 °F 34.0 °F 89% 29.90 in 10.0 mi NW 11.5 mph 25.3 mph 0.01 in Rain Light Rain
11:52 PM 37.0 °F 30.4 °F 34.0 °F 89% 29.92 in 10.0 mi WNW 9.2 mph 20.7 mph 0.00 in Rain Light Rain